| time (UTC) | temp C | wind direction | speed KPH | gust KPH | rain 1hr cm | rain 24hr cm | rain mn cm | humidity % | barometer mb |
| 20260506201421 | 17 | 24 | 4.8 | 8.0 | 0.00 | 0.00 | 0.00 | 64 | 1016.4 |
| 20260506201219 | 17 | 14 | 12.9 | 17.7 | 0.00 | 0.00 | 0.00 | 65 | 1016.5 |
| 20260506201018 | 18 | 22 | 9.7 | 16.1 | 0.00 | 0.00 | 0.00 | 64 | 1016.5 |
| 20260506200837 | 18 | 72 | 12.9 | 17.7 | 0.00 | 0.00 | 0.00 | 62 | 1016.5 |
| 20260506200625 | 19 | 75 | 6.4 | 11.3 | 0.00 | 0.00 | 0.00 | 61 | 1016.7 |
| 20260506200423 | 18 | 7 | 4.8 | 9.7 | 0.00 | 0.00 | 0.00 | 62 | 1016.6 |
| 20260506200222 | 17 | 24 | 4.8 | 6.4 | 0.00 | 0.00 | 0.00 | 64 | 1016.5 |
| 20260506200040 | 18 | 23 | 12.9 | 16.1 | 0.00 | 0.00 | 0.00 | 64 | 1016.5 |
| 20260506195819 | 18 | 13 | 4.8 | 6.4 | 0.00 | 0.00 | 0.00 | 63 | 1016.6 |
| 20260506195618 | 17 | 47 | 16.1 | 22.5 | 0.00 | 0.00 | 0.00 | 65 | 1016.4 |
| 20260506195416 | 17 | 40 | 12.9 | 20.9 | 0.00 | 0.00 | 0.00 | 64 | 1016.4 |
| 20260506195225 | 17 | 34 | 11.3 | 17.7 | 0.00 | 0.00 | 0.00 | 65 | 1016.4 |
| 20260506195023 | 17 | 30 | 11.3 | 19.3 | 0.00 | 0.00 | 0.00 | 65 | 1016.3 |
| 20260506194822 | 17 | 40 | 14.5 | 22.5 | 0.00 | 0.00 | 0.00 | 66 | 1016.2 |
| 20260506194620 | 18 | 53 | 16.1 | 24.1 | 0.00 | 0.00 | 0.00 | 64 | 1016.5 |
| 20260506194419 | 18 | 49 | 4.8 | 9.7 | 0.00 | 0.00 | 0.00 | 61 | 1016.3 |
| 20260506194219 | 17 | 74 | 6.4 | 9.7 | 0.00 | 0.00 | 0.00 | 65 | 1016.3 |
| 20260506194016 | 17 | 53 | 17.7 | 20.9 | 0.00 | 0.00 | 0.00 | 65 | 1016.1 |
| 20260506193825 | 18 | 40 | 14.5 | 19.3 | 0.00 | 0.00 | 0.00 | 66 | 1015.9 |
| 20260506193623 | 17 | 41 | 12.9 | 22.5 | 0.00 | 0.00 | 0.00 | 65 | 1016.3 |
| 20260506193422 | 18 | 322 | 16.1 | 19.3 | 0.00 | 0.00 | 0.00 | 64 | 1016.0 |
| 20260506193240 | 17 | 16 | 8.0 | 14.5 | 0.00 | 0.00 | 0.00 | 66 | 1015.9 |
| 20260506193119 | 17 | 23 | 14.5 | 24.1 | 0.00 | 0.00 | 0.00 | 66 | 1015.7 |
| 20260506192817 | 18 | 22 | 19.3 | 27.4 | 0.00 | 0.00 | 0.00 | 65 | 1015.8 |
| 20260506192618 | 17 | 37 | 16.1 | 25.7 | 0.00 | 0.00 | 0.00 | 66 | 1015.6 |
| 20260506192424 | 17 | 22 | 12.9 | 16.1 | 0.00 | 0.00 | 0.00 | 67 | 1015.6 |
| 20260506192223 | 16 | 33 | 14.5 | 19.3 | 0.00 | 0.00 | 0.00 | 67 | 1015.8 |
| 20260506192023 | 16 | 22 | 17.7 | 22.5 | 0.00 | 0.00 | 0.00 | 67 | 1015.7 |
| 20260506191840 | 16 | 16 | 19.3 | 24.1 | 0.00 | 0.00 | 0.00 | 67 | 1015.7 |
| 20260506191619 | 16 | 29 | 19.3 | 29.0 | 0.00 | 0.00 | 0.00 | 68 | 1015.8 |
| 20260506191417 | 17 | 32 | 22.5 | 27.4 | 0.00 | 0.00 | 0.00 | 67 | 1015.8 |
| 20260506191216 | 16 | 31 | 19.3 | 27.4 | 0.00 | 0.00 | 0.00 | 68 | 1015.6 |
| 20260506191024 | 17 | 35 | 20.9 | 29.0 | 0.00 | 0.00 | 0.00 | 67 | 1015.5 |
| 20260506190823 | 17 | 29 | 16.1 | 25.7 | 0.00 | 0.00 | 0.00 | 67 | 1015.8 |
| 20260506190621 | 16 | 38 | 16.1 | 24.1 | 0.00 | 0.00 | 0.00 | 67 | 1015.8 |
| 20260506190440 | 16 | 46 | 16.1 | 24.1 | 0.00 | 0.00 | 0.00 | 67 | 1015.8 |
| 20260506190218 | 17 | 17 | 8.0 | 14.5 | 0.00 | 0.00 | 0.00 | 65 | 1015.8 |
| 20260506190038 | 17 | 37 | 17.7 | 24.1 | 0.00 | 0.00 | 0.00 | 68 | 1015.9 |
| 20260506185827 | 16 | 25 | 16.1 | 25.7 | 0.00 | 0.00 | 0.00 | 68 | 1015.9 |
| 20260506185626 | 16 | 26 | 12.9 | 20.9 | 0.00 | 0.00 | 0.00 | 68 | 1016.0 |
| 20260506185423 | 16 | 38 | 16.1 | 22.5 | 0.00 | 0.00 | 0.00 | 68 | 1015.8 |
| 20260506185221 | 16 | 22 | 17.7 | 27.4 | 0.00 | 0.00 | 0.00 | 68 | 1015.8 |
| 20260506185040 | 16 | 25 | 16.1 | 22.5 | 0.00 | 0.00 | 0.00 | 68 | 1016.0 |
| 20260506184818 | 16 | 18 | 17.7 | 27.4 | 0.00 | 0.00 | 0.00 | 68 | 1016.1 |
| 20260506184616 | 16 | 17 | 19.3 | 29.0 | 0.00 | 0.00 | 0.00 | 67 | 1016.0 |
| 20260506184425 | 16 | 26 | 12.9 | 19.3 | 0.00 | 0.00 | 0.00 | 68 | 1016.1 |
| 20260506184224 | 17 | 12 | 11.3 | 17.7 | 0.00 | 0.00 | 0.00 | 67 | 1016.3 |
| 20260506184024 | 17 | 5 | 11.3 | 20.9 | 0.00 | 0.00 | 0.00 | 66 | 1016.0 |
| 20260506183821 | 16 | 27 | 17.7 | 27.4 | 0.00 | 0.00 | 0.00 | 68 | 1016.1 |
| 20260506183619 | 16 | 11 | 20.9 | 27.4 | 0.00 | 0.00 | 0.00 | 67 | 1015.9 |
| 20260506183418 | 16 | 13 | 16.1 | 24.1 | 0.00 | 0.00 | 0.00 | 67 | 1016.1 |
| 20260506183216 | 16 | 16 | 17.7 | 25.7 | 0.00 | 0.00 | 0.00 | 68 | 1016.1 |
| 20260506183046 | 16 | 37 | 12.9 | 22.5 | 0.00 | 0.00 | 0.00 | 68 | 1016.0 |
| 20260506182824 | 16 | 49 | 17.7 | 25.7 | 0.00 | 0.00 | 0.00 | 70 | 1015.8 |
| 20260506182624 | 15 | 36 | 22.5 | 29.0 | 0.00 | 0.00 | 0.00 | 70 | 1015.9 |
| 20260506182501 | 15 | 27 | 27.4 | 35.4 | 0.00 | 0.00 | 0.00 | 70 | 1015.9 |
| 20260506182222 | 15 | 32 | 17.7 | 29.0 | 0.00 | 0.00 | 0.00 | 70 | 1016.2 |
| 20260506182018 | 16 | 25 | 22.5 | 30.6 | 0.00 | 0.00 | 0.00 | 69 | 1016.2 |
| 20260506181817 | 16 | 21 | 22.5 | 32.2 | 0.00 | 0.00 | 0.00 | 70 | 1016.0 |
| 20260506181645 | 15 | 29 | 16.1 | 20.9 | 0.00 | 0.00 | 0.00 | 70 | 1015.9 |
| 20260506181424 | 15 | 25 | 27.4 | 33.8 | 0.00 | 0.00 | 0.00 | 70 | 1015.9 |
| 20260506181222 | 15 | 29 | 27.4 | 33.8 | 0.00 | 0.00 | 0.00 | 70 | 1016.0 |
| 20260506181021 | 16 | 21 | 24.1 | 32.2 | 0.00 | 0.00 | 0.00 | 69 | 1015.9 |
| 20260506180819 | 16 | 15 | 20.9 | 30.6 | 0.00 | 0.00 | 0.00 | 68 | 1015.9 |
| 20260506180618 | 16 | 25 | 14.5 | 22.5 | 0.00 | 0.00 | 0.00 | 70 | 1016.0 |
| 20260506180416 | 16 | 7 | 20.9 | 30.6 | 0.00 | 0.00 | 0.00 | 69 | 1015.9 |
| 20260506180225 | 16 | 16 | 14.5 | 24.1 | 0.00 | 0.00 | 0.00 | 69 | 1016.3 |
| 20260506180023 | 15 | 22 | 19.3 | 30.6 | 0.00 | 0.00 | 0.00 | 70 | 1016.3 |
| 20260506175822 | 16 | 26 | 14.5 | 25.7 | 0.00 | 0.00 | 0.00 | 69 | 1016.3 |
| 20260506175620 | 15 | 29 | 17.7 | 27.4 | 0.00 | 0.00 | 0.00 | 69 | 1016.1 |
| 20260506175459 | 15 | 15 | 22.5 | 33.8 | 0.00 | 0.00 | 0.00 | 70 | 1016.2 |
| 20260506175218 | 15 | 17 | 20.9 | 35.4 | 0.00 | 0.00 | 0.00 | 70 | 1016.2 |
| 20260506175018 | 16 | 10 | 17.7 | 33.8 | 0.00 | 0.00 | 0.00 | 68 | 1016.3 |
| 20260506174825 | 16 | 357 | 14.5 | 25.7 | 0.00 | 0.00 | 0.00 | 68 | 1016.3 |
| 20260506174623 | 16 | 3 | 12.9 | 20.9 | 0.00 | 0.00 | 0.00 | 69 | 1016.4 |
| 20260506174442 | 15 | 4 | 17.7 | 24.1 | 0.00 | 0.00 | 0.00 | 70 | 1016.3 |
| 20260506174220 | 15 | 17 | 20.9 | 30.6 | 0.00 | 0.00 | 0.00 | 70 | 1016.4 |
| 20260506174019 | 15 | 13 | 19.3 | 32.2 | 0.00 | 0.00 | 0.00 | 69 | 1016.5 |
| 20260506173817 | 15 | 11 | 17.7 | 24.1 | 0.00 | 0.00 | 0.00 | 70 | 1016.6 |
| 20260506173615 | 15 | 18 | 17.7 | 22.5 | 0.00 | 0.00 | 0.00 | 70 | 1016.5 |
| 20260506173424 | 14 | 47 | 19.3 | 33.8 | 0.00 | 0.00 | 0.00 | 71 | 1016.5 |
| 20260506173223 | 15 | 17 | 24.1 | 35.4 | 0.00 | 0.00 | 0.00 | 70 | 1016.6 |
| 20260506173021 | 15 | 13 | 14.5 | 27.4 | 0.00 | 0.00 | 0.00 | 69 | 1016.6 |
| 20260506172840 | 16 | 3 | 12.9 | 24.1 | 0.00 | 0.00 | 0.00 | 69 | 1016.4 |
| 20260506172659 | 15 | 13 | 22.5 | 37.0 | 0.00 | 0.00 | 0.00 | 70 | 1016.3 |
| 20260506172417 | 15 | 13 | 19.3 | 30.6 | 0.00 | 0.00 | 0.00 | 69 | 1016.3 |
| 20260506172216 | 14 | 21 | 19.3 | 24.1 | 0.00 | 0.00 | 0.00 | 71 | 1016.5 |
| 20260506172024 | 14 | 47 | 20.9 | 30.6 | 0.00 | 0.00 | 0.00 | 71 | 1016.7 |
| 20260506171824 | 15 | 357 | 12.9 | 27.4 | 0.00 | 0.00 | 0.00 | 70 | 1016.8 |
| 20260506171621 | 15 | 8 | 14.5 | 30.6 | 0.00 | 0.00 | 0.00 | 72 | 1016.7 |
| 20260506171440 | 14 | 44 | 20.9 | 29.0 | 0.00 | 0.00 | 0.00 | 72 | 1016.4 |
| 20260506171238 | 14 | 49 | 22.5 | 35.4 | 0.00 | 0.00 | 0.00 | 72 | 1016.6 |
| 20260506171017 | 13 | 30 | 27.4 | 33.8 | 0.00 | 0.00 | 0.00 | 72 | 1016.7 |
| 20260506170827 | 14 | 11 | 20.9 | 29.0 | 0.00 | 0.00 | 0.00 | 72 | 1016.6 |
| 20260506170644 | 14 | 22 | 22.5 | 30.6 | 0.00 | 0.00 | 0.00 | 72 | 1016.8 |
| 20260506170423 | 13 | 8 | 16.1 | 29.0 | 0.00 | 0.00 | 0.00 | 73 | 1016.7 |
| 20260506170221 | 13 | 17 | 22.5 | 37.0 | 0.00 | 0.00 | 0.00 | 73 | 1016.8 |
| 20260506170020 | 13 | 28 | 27.4 | 30.6 | 0.00 | 0.00 | 0.00 | 72 | 1016.7 |
| 20260506165818 | 13 | 25 | 20.9 | 30.6 | 0.00 | 0.00 | 0.00 | 72 | 1016.7 |
| 20260506165637 | 14 | 28 | 19.3 | 25.7 | 0.00 | 0.00 | 0.00 | 72 | 1016.7 |
| 20260506165507 | 13 | 27 | 16.1 | 27.4 | 0.00 | 0.00 | 0.00 | 73 | 1016.8 |
| 20260506165224 | 13 | 40 | 25.7 | 37.0 | 0.00 | 0.00 | 0.00 | 73 | 1016.7 |
| 20260506165022 | 13 | 29 | 24.1 | 32.2 | 0.00 | 0.00 | 0.00 | 74 | 1016.6 |
| 20260506164821 | 13 | 36 | 24.1 | 38.6 | 0.00 | 0.00 | 0.00 | 74 | 1016.7 |
| 20260506164619 | 13 | 26 | 20.9 | 29.0 | 0.00 | 0.00 | 0.00 | 74 | 1016.6 |
| 20260506164419 | 13 | 28 | 25.7 | 33.8 | 0.00 | 0.00 | 0.00 | 73 | 1016.7 |
| 20260506164218 | 13 | 24 | 17.7 | 30.6 | 0.00 | 0.00 | 0.00 | 74 | 1016.5 |
| 20260506164025 | 13 | 44 | 16.1 | 24.1 | 0.00 | 0.00 | 0.00 | 73 | 1016.6 |
| 20260506163823 | 13 | 23 | 17.7 | 24.1 | 0.00 | 0.00 | 0.00 | 74 | 1016.5 |
| 20260506163622 | 13 | 35 | 29.0 | 35.4 | 0.00 | 0.00 | 0.00 | 74 | 1016.4 |
| 20260506163440 | 12 | 23 | 24.1 | 32.2 | 0.00 | 0.00 | 0.00 | 75 | 1016.5 |
| 20260506163219 | 12 | 27 | 25.7 | 30.6 | 0.00 | 0.00 | 0.00 | 75 | 1016.5 |
| 20260506163038 | 12 | 28 | 16.1 | 20.9 | 0.00 | 0.00 | 0.00 | 76 | 1016.4 |
| 20260506162818 | 12 | 42 | 22.5 | 29.0 | 0.00 | 0.00 | 0.00 | 76 | 1016.8 |
| 20260506162625 | 12 | 15 | 17.7 | 29.0 | 0.00 | 0.00 | 0.00 | 76 | 1016.7 |
| 20260506162423 | 12 | 28 | 24.1 | 37.0 | 0.00 | 0.00 | 0.00 | 76 | 1016.8 |
| 20260506162245 | 12 | 13 | 8.0 | 12.9 | 0.00 | 0.00 | 0.00 | 76 | 1016.8 |
| 20260506162021 | 12 | 13 | 14.5 | 17.7 | 0.00 | 0.00 | 0.00 | 77 | 1016.7 |
| 20260506161819 | 12 | 24 | 24.1 | 32.2 | 0.00 | 0.00 | 0.00 | 77 | 1016.6 |
| 20260506161658 | 12 | 8 | 17.7 | 30.6 | 0.00 | 0.00 | 0.00 | 77 | 1016.4 |
| 20260506161416 | 12 | 26 | 22.5 | 33.8 | 0.00 | 0.00 | 0.00 | 77 | 1016.3 |
| 20260506161226 | 12 | 14 | 16.1 | 20.9 | 0.00 | 0.00 | 0.00 | 77 | 1016.3 |
| 20260506161023 | 12 | 19 | 14.5 | 20.9 | 0.00 | 0.00 | 0.00 | 78 | 1016.5 |
| 20260506160822 | 12 | 14 | 19.3 | 27.4 | 0.00 | 0.00 | 0.00 | 77 | 1016.6 |
| 20260506160620 | 11 | 19 | 16.1 | 22.5 | 0.00 | 0.00 | 0.00 | 78 | 1016.5 |
| 20260506160439 | 11 | 19 | 19.3 | 25.7 | 0.00 | 0.00 | 0.00 | 78 | 1016.8 |
| 20260506160217 | 11 | 18 | 17.7 | 24.1 | 0.00 | 0.00 | 0.00 | 78 | 1016.8 |
| 20260506160015 | 11 | 11 | 14.5 | 20.9 | 0.00 | 0.00 | 0.00 | 78 | 1016.7 |
| 20260506155824 | 11 | 13 | 16.1 | 24.1 | 0.00 | 0.00 | 0.00 | 78 | 1017.0 |
| 20260506155643 | 11 | 25 | 16.1 | 22.5 | 0.00 | 0.00 | 0.00 | 79 | 1017.1 |
| 20260506155421 | 11 | 21 | 16.1 | 20.9 | 0.00 | 0.00 | 0.00 | 78 | 1017.1 |
| 20260506155220 | 11 | 22 | 14.5 | 17.7 | 0.00 | 0.00 | 0.00 | 79 | 1017.3 |
| 20260506155018 | 11 | 24 | 11.3 | 14.5 | 0.00 | 0.00 | 0.00 | 80 | 1017.3 |
| 20260506154817 | 11 | 33 | 9.7 | 12.9 | 0.00 | 0.00 | 0.00 | 79 | 1017.4 |
| 20260506154625 | 11 | 39 | 12.9 | 17.7 | 0.00 | 0.00 | 0.00 | 79 | 1017.7 |
| 20260506154424 | 11 | 34 | 12.9 | 20.9 | 0.00 | 0.00 | 0.00 | 79 | 1017.5 |
| 20260506154243 | 11 | 35 | 16.1 | 19.3 | 0.00 | 0.00 | 0.00 | 79 | 1017.9 |
| 20260506154021 | 11 | 28 | 14.5 | 20.9 | 0.00 | 0.00 | 0.00 | 79 | 1017.6 |
| 20260506153820 | 11 | 19 | 16.1 | 20.9 | 0.00 | 0.00 | 0.00 | 78 | 1017.9 |
| 20260506153640 | 11 | 11 | 12.9 | 16.1 | 0.00 | 0.00 | 0.00 | 78 | 1017.8 |
| 20260506153417 | 11 | 21 | 14.5 | 17.7 | 0.00 | 0.00 | 0.00 | 78 | 1017.9 |
| 20260506153225 | 11 | 22 | 12.9 | 17.7 | 0.00 | 0.00 | 0.00 | 78 | 1018.3 |
| 20260506153024 | 11 | 32 | 11.3 | 12.9 | 0.00 | 0.00 | 0.00 | 78 | 1018.0 |
| 20260506152823 | 11 | 41 | 9.7 | 14.5 | 0.00 | 0.00 | 0.00 | 79 | 1018.0 |
| 20260506152621 | 11 | 53 | 8.0 | 9.7 | 0.00 | 0.00 | 0.00 | 79 | 1018.1 |
| 20260506152419 | 11 | 42 | 4.8 | 9.7 | 0.00 | 0.00 | 0.00 | 79 | 1018.1 |
| 20260506152218 | 11 | 27 | 11.3 | 16.1 | 0.00 | 0.00 | 0.00 | 78 | 1017.8 |
| 20260506152017 | 11 | 15 | 8.0 | 16.1 | 0.00 | 0.00 | 0.00 | 79 | 1017.8 |
| 20260506151825 | 11 | 17 | 14.5 | 24.1 | 0.00 | 0.00 | 0.00 | 78 | 1017.4 |
| 20260506151624 | 11 | 9 | 16.1 | 27.4 | 0.00 | 0.00 | 0.00 | 78 | 1017.5 |
| 20260506151423 | 11 | 3 | 14.5 | 20.9 | 0.00 | 0.00 | 0.00 | 78 | 1017.3 |
| 20260506151221 | 11 | 17 | 11.3 | 16.1 | 0.00 | 0.00 | 0.00 | 79 | 1017.2 |
| 20260506151021 | 11 | 12 | 14.5 | 22.5 | 0.00 | 0.00 | 0.00 | 79 | 1017.1 |
| 20260506150818 | 11 | 24 | 20.9 | 30.6 | 0.00 | 0.00 | 0.00 | 79 | 1017.0 |
| 20260506150616 | 11 | 11 | 19.3 | 27.4 | 0.00 | 0.00 | 0.00 | 79 | 1017.0 |
| 20260506150425 | 11 | 14 | 12.9 | 20.9 | 0.00 | 0.00 | 0.00 | 79 | 1016.9 |
| 20260506150224 | 11 | 23 | 16.1 | 20.9 | 0.00 | 0.00 | 0.00 | 79 | 1016.7 |
| 20260506150022 | 11 | 28 | 22.5 | 30.6 | 0.00 | 0.00 | 0.00 | 79 | 1016.8 |
| 20260506145821 | 11 | 17 | 19.3 | 30.6 | 0.00 | 0.00 | 0.00 | 79 | 1016.8 |
| 20260506145619 | 11 | 17 | 17.7 | 29.0 | 0.00 | 0.00 | 0.00 | 80 | 1016.9 |
| 20260506145418 | 11 | 8 | 16.1 | 24.1 | 0.00 | 0.00 | 0.00 | 79 | 1017.0 |
| 20260506145218 | 11 | 5 | 11.3 | 19.3 | 0.00 | 0.00 | 0.00 | 80 | 1017.1 |
| 20260506145024 | 11 | 12 | 17.7 | 25.7 | 0.00 | 0.00 | 0.00 | 79 | 1017.2 |
| 20260506144823 | 11 | 23 | 19.3 | 29.0 | 0.00 | 0.00 | 0.00 | 80 | 1016.9 |
| 20260506144642 | 11 | 12 | 11.3 | 17.7 | 0.00 | 0.00 | 0.00 | 80 | 1016.8 |
| 20260506144421 | 11 | 9 | 17.7 | 33.8 | 0.00 | 0.00 | 0.00 | 80 | 1016.9 |
| 20260506144219 | 11 | 20 | 19.3 | 24.1 | 0.00 | 0.00 | 0.00 | 79 | 1016.7 |
| 20260506144017 | 11 | 20 | 19.3 | 24.1 | 0.00 | 0.00 | 0.00 | 80 | 1016.9 |
| 20260506143819 | 11 | 16 | 14.5 | 20.9 | 0.00 | 0.00 | 0.00 | 80 | 1017.0 |
| 20260506143644 | 11 | 19 | 12.9 | 17.7 | 0.00 | 0.00 | 0.00 | 80 | 1016.7 |
| 20260506143423 | 11 | 16 | 20.9 | 24.1 | 0.00 | 0.00 | 0.00 | 80 | 1016.8 |
| 20260506143221 | 11 | 29 | 12.9 | 17.7 | 0.00 | 0.00 | 0.00 | 81 | 1016.7 |
| 20260506143023 | 11 | 30 | 16.1 | 20.9 | 0.00 | 0.00 | 0.00 | 81 | 1016.8 |
| 20260506142818 | 11 | 21 | 11.3 | 19.3 | 0.00 | 0.00 | 0.00 | 81 | 1016.9 |
| 20260506142637 | 11 | 35 | 16.1 | 22.5 | 0.00 | 0.00 | 0.00 | 81 | 1016.9 |
| 20260506142425 | 11 | 31 | 17.7 | 24.1 | 0.00 | 0.00 | 0.00 | 81 | 1016.7 |
| 20260506142405 | 11 | 24 | 16.1 | 27.4 | 0.00 | 0.00 | 0.00 | 82 | 1016.7 |
| 20260506142023 | 11 | 26 | 8.0 | 9.7 | 0.00 | 0.00 | 0.00 | 83 | 1016.6 |
| 20260506141822 | 11 | 18 | 6.4 | 9.7 | 0.00 | 0.00 | 0.00 | 83 | 1016.9 |
| 20260506141620 | 11 | 22 | 11.3 | 16.1 | 0.00 | 0.00 | 0.00 | 83 | 1016.9 |
| 20260506141418 | 11 | 14 | 12.9 | 17.7 | 0.00 | 0.00 | 0.00 | 82 | 1017.1 |
| 20260506141219 | 10 | 2 | 12.9 | 17.7 | 0.00 | 0.00 | 0.00 | 83 | 1017.0 |
| 20260506141026 | 10 | 19 | 17.7 | 20.9 | 0.00 | 0.00 | 0.00 | 82 | 1016.7 |
| 20260506140824 | 10 | 11 | 14.5 | 16.1 | 0.00 | 0.00 | 0.00 | 83 | 1016.8 |
| 20260506140625 | 10 | 18 | 14.5 | 20.9 | 0.00 | 0.00 | 0.00 | 82 | 1016.7 |
| 20260506140421 | 10 | 20 | 16.1 | 22.5 | 0.00 | 0.00 | 0.00 | 83 | 1016.5 |
| 20260506140219 | 10 | 19 | 11.3 | 17.7 | 0.00 | 0.00 | 0.00 | 83 | 1016.5 |
| 20260506140038 | 10 | 13 | 16.1 | 22.5 | 0.00 | 0.00 | 0.00 | 83 | 1016.5 |
| 20260506135817 | 10 | 13 | 11.3 | 14.5 | 0.00 | 0.00 | 0.00 | 83 | 1016.3 |
| 20260506135645 | 10 | 21 | 12.9 | 19.3 | 0.00 | 0.00 | 0.00 | 83 | 1016.1 |
| 20260506135424 | 10 | 20 | 12.9 | 17.7 | 0.00 | 0.00 | 0.00 | 83 | 1016.0 |
| 20260506135224 | 10 | 26 | 20.9 | 24.1 | 0.00 | 0.00 | 0.00 | 83 | 1015.9 |
| 20260506135021 | 10 | 38 | 19.3 | 25.7 | 0.00 | 0.00 | 0.00 | 83 | 1016.0 |
| 20260506134819 | 10 | 31 | 14.5 | 22.5 | 0.00 | 0.00 | 0.00 | 84 | 1015.9 |
| 20260506134618 | 10 | 21 | 12.9 | 17.7 | 0.00 | 0.00 | 0.00 | 84 | 1016.1 |
| 20260506134416 | 10 | 22 | 19.3 | 25.7 | 0.00 | 0.00 | 0.00 | 84 | 1016.1 |
| 20260506134225 | 10 | 18 | 17.7 | 25.7 | 0.00 | 0.00 | 0.00 | 84 | 1016.2 |
| 20260506134024 | 10 | 22 | 24.1 | 33.8 | 0.00 | 0.00 | 0.00 | 84 | 1016.0 |
| 20260506133823 | 10 | 19 | 20.9 | 27.4 | 0.00 | 0.00 | 0.00 | 84 | 1016.1 |
| 20260506133622 | 10 | 15 | 16.1 | 24.1 | 0.00 | 0.00 | 0.00 | 84 | 1015.8 |
| 20260506133439 | 10 | 9 | 14.5 | 25.7 | 0.00 | 0.00 | 0.00 | 84 | 1015.8 |
| 20260506133218 | 10 | 11 | 16.1 | 22.5 | 0.00 | 0.00 | 0.00 | 84 | 1015.9 |
| 20260506133016 | 10 | 11 | 12.9 | 19.3 | 0.00 | 0.00 | 0.00 | 85 | 1015.9 |
| 20260506132825 | 10 | 24 | 17.7 | 27.4 | 0.00 | 0.00 | 0.00 | 84 | 1016.0 |
| 20260506132623 | 10 | 19 | 17.7 | 22.5 | 0.00 | 0.00 | 0.00 | 85 | 1015.9 |
| 20260506132422 | 10 | 16 | 19.3 | 30.6 | 0.00 | 0.00 | 0.00 | 84 | 1016.0 |
| 20260506132221 | 10 | 15 | 16.1 | 20.9 | 0.00 | 0.00 | 0.00 | 85 | 1015.7 |
| 20260506132019 | 10 | 12 | 11.3 | 16.1 | 0.00 | 0.00 | 0.00 | 86 | 1015.8 |
| 20260506131818 | 10 | 13 | 14.5 | 20.9 | 0.00 | 0.00 | 0.00 | 86 | 1015.7 |
| 20260506131616 | 10 | 14 | 14.5 | 20.9 | 0.00 | 0.00 | 0.00 | 86 | 1015.8 |
| 20260506131426 | 10 | 13 | 12.9 | 19.3 | 0.00 | 0.00 | 0.00 | 87 | 1015.8 |
| 20260506131243 | 10 | 21 | 12.9 | 19.3 | 0.00 | 0.00 | 0.00 | 87 | 1015.8 |
| 20260506131042 | 10 | 9 | 12.9 | 19.3 | 0.00 | 0.00 | 0.00 | 87 | 1015.6 |
| 20260506130821 | 10 | 7 | 11.3 | 16.1 | 0.00 | 0.00 | 0.00 | 87 | 1015.6 |
| 20260506130619 | 10 | 14 | 8.0 | 12.9 | 0.00 | 0.00 | 0.00 | 88 | 1015.5 |
| 20260506130420 | 10 | 12 | 14.5 | 22.5 | 0.00 | 0.00 | 0.00 | 87 | 1015.5 |
| 20260506130216 | 10 | 16 | 12.9 | 16.1 | 0.00 | 0.00 | 0.00 | 88 | 1015.6 |
| 20260506130024 | 10 | 10 | 14.5 | 20.9 | 0.00 | 0.00 | 0.00 | 88 | 1015.6 |
| 20260506125823 | 10 | 16 | 14.5 | 19.3 | 0.00 | 0.00 | 0.00 | 88 | 1015.4 |
| 20260506125622 | 9 | 24 | 19.3 | 25.7 | 0.00 | 0.00 | 0.00 | 89 | 1015.1 |
| 20260506125420 | 9 | 24 | 12.9 | 17.7 | 0.00 | 0.00 | 0.00 | 89 | 1015.2 |
| 20260506125220 | 9 | 16 | 14.5 | 24.1 | 0.00 | 0.00 | 0.00 | 90 | 1015.4 |
| 20260506125019 | 9 | 10 | 17.7 | 22.5 | 0.00 | 0.00 | 0.00 | 90 | 1015.2 |
| 20260506124816 | 9 | 15 | 16.1 | 24.1 | 0.00 | 0.00 | 0.00 | 90 | 1015.2 |
| 20260506124624 | 9 | 20 | 14.5 | 20.9 | 0.00 | 0.00 | 0.00 | 91 | 1015.2 |
| 20260506124444 | 9 | 11 | 14.5 | 20.9 | 0.00 | 0.00 | 0.00 | 91 | 1015.2 |
| 20260506124221 | 9 | 13 | 11.3 | 16.1 | 0.00 | 0.00 | 0.00 | 92 | 1015.2 |
| 20260506124040 | 9 | 12 | 12.9 | 22.5 | 0.00 | 0.00 | 0.00 | 91 | 1015.2 |
| 20260506123818 | 9 | 13 | 17.7 | 22.5 | 0.00 | 0.00 | 0.00 | 91 | 1015.1 |
| 20260506123617 | 9 | 15 | 12.9 | 17.7 | 0.00 | 0.00 | 0.00 | 91 | 1015.2 |
| 20260506123426 | 9 | 0 | 12.9 | 16.1 | 0.00 | 0.00 | 0.00 | 92 | 1015.2 |
| 20260506123224 | 9 | 11 | 14.5 | 19.3 | 0.00 | 0.00 | 0.00 | 91 | 1015.0 |
| 20260506123022 | 9 | 7 | 12.9 | 17.7 | 0.00 | 0.00 | 0.00 | 91 | 1015.1 |
| 20260506122821 | 9 | 13 | 14.5 | 22.5 | 0.00 | 0.00 | 0.00 | 91 | 1015.1 |
| 20260506122620 | 9 | 7 | 14.5 | 22.5 | 0.00 | 0.00 | 0.00 | 91 | 1015.0 |
| 20260506122418 | 9 | 17 | 19.3 | 27.4 | 0.00 | 0.00 | 0.00 | 91 | 1015.0 |
| 20260506122217 | 9 | 19 | 19.3 | 25.7 | 0.00 | 0.00 | 0.00 | 91 | 1015.0 |
| 20260506122025 | 9 | 3 | 14.5 | 22.5 | 0.00 | 0.00 | 0.00 | 91 | 1015.1 |
| 20260506121824 | 9 | 9 | 14.5 | 22.5 | 0.00 | 0.00 | 0.00 | 91 | 1015.2 |
| 20260506121642 | 9 | 15 | 12.9 | 17.7 | 0.00 | 0.00 | 0.00 | 91 | 1015.2 |
| 20260506121421 | 9 | 11 | 17.7 | 22.5 | 0.00 | 0.00 | 0.00 | 90 | 1015.4 |
| 20260506121240 | 9 | 11 | 19.3 | 27.4 | 0.00 | 0.00 | 0.00 | 90 | 1015.4 |
| 20260506121018 | 9 | 17 | 14.5 | 20.9 | 0.00 | 0.00 | 0.00 | 90 | 1015.3 |
| 20260506120816 | 9 | 10 | 11.3 | 19.3 | 0.00 | 0.00 | 0.00 | 90 | 1015.3 |
| 20260506120625 | 9 | 9 | 12.9 | 22.5 | 0.00 | 0.00 | 0.00 | 90 | 1015.2 |
| 20260506120423 | 9 | 5 | 11.3 | 16.1 | 0.00 | 0.00 | 0.00 | 91 | 1015.1 |
| 20260506120222 | 9 | 7 | 14.5 | 24.1 | 0.00 | 0.00 | 0.00 | 90 | 1015.2 |
| 20260506120041 | 9 | 9 | 16.1 | 29.0 | 0.00 | 0.00 | 0.00 | 90 | 1015.1 |
| 20260506115820 | 9 | 11 | 16.1 | 22.5 | 0.00 | 0.00 | 0.00 | 90 | 1015.1 |
| 20260506115617 | 9 | 13 | 12.9 | 17.7 | 0.00 | 0.00 | 0.00 | 90 | 1015.2 |
| 20260506115436 | 9 | 5 | 11.3 | 19.3 | 0.00 | 0.00 | 0.00 | 90 | 1015.4 |
| 20260506115227 | 9 | 10 | 9.7 | 12.9 | 0.00 | 0.00 | 0.00 | 90 | 1015.2 |
| 20260506115023 | 9 | 13 | 12.9 | 19.3 | 0.00 | 0.00 | 0.00 | 90 | 1015.1 |
| 20260506114822 | 9 | 346 | 14.5 | 25.7 | 0.00 | 0.00 | 0.00 | 90 | 1015.1 |
| 20260506114620 | 9 | 360 | 11.3 | 16.1 | 0.00 | 0.00 | 0.00 | 90 | 1014.9 |
| 20260506114419 | 9 | 359 | 12.9 | 19.3 | 0.00 | 0.00 | 0.00 | 90 | 1014.8 |
| 20260506114220 | 9 | 2 | 14.5 | 24.1 | 0.00 | 0.00 | 0.00 | 90 | 1014.7 |
| 20260506114016 | 9 | 9 | 11.3 | 19.3 | 0.00 | 0.00 | 0.00 | 90 | 1014.8 |
| 20260506113844 | 9 | 9 | 16.1 | 20.9 | 0.00 | 0.00 | 0.00 | 90 | 1014.4 |
| 20260506113623 | 9 | 8 | 11.3 | 17.7 | 0.00 | 0.00 | 0.00 | 90 | 1014.5 |
| 20260506113422 | 9 | 12 | 19.3 | 29.0 | 0.00 | 0.00 | 0.00 | 90 | 1014.8 |
| 20260506113303 | 9 | 353 | 11.3 | 20.9 | 0.00 | 0.00 | 0.00 | 90 | 1014.7 |
| 20260506113019 | 9 | 9 | 16.1 | 24.1 | 0.00 | 0.00 | 0.00 | 90 | 1014.6 |
| 20260506112817 | 9 | 10 | 16.1 | 24.1 | 0.00 | 0.00 | 0.00 | 90 | 1014.5 |
| 20260506112616 | 9 | 12 | 14.5 | 20.9 | 0.00 | 0.00 | 0.00 | 90 | 1014.6 |
| 20260506112427 | 9 | 18 | 17.7 | 32.2 | 0.00 | 0.00 | 0.00 | 90 | 1014.2 |
| 20260506112223 | 9 | 350 | 8.0 | 17.7 | 0.00 | 0.00 | 0.00 | 90 | 1014.5 |
| 20260506112021 | 9 | 11 | 11.3 | 20.9 | 0.00 | 0.00 | 0.00 | 90 | 1014.4 |
| 20260506111820 | 9 | 1 | 16.1 | 22.5 | 0.00 | 0.00 | 0.00 | 90 | 1014.3 |
| 20260506111618 | 9 | 358 | 19.3 | 32.2 | 0.00 | 0.00 | 0.00 | 90 | 1014.3 |
| 20260506111437 | 9 | 356 | 11.3 | 22.5 | 0.00 | 0.00 | 0.00 | 91 | 1014.3 |
| 20260506111228 | 9 | 4 | 16.1 | 30.6 | 0.00 | 0.00 | 0.00 | 90 | 1014.3 |
| 20260506111024 | 9 | 7 | 19.3 | 27.4 | 0.00 | 0.00 | 0.00 | 91 | 1014.3 |
| 20260506110823 | 9 | 5 | 12.9 | 17.7 | 0.00 | 0.00 | 0.00 | 91 | 1014.3 |
| 20260506110621 | 9 | 9 | 19.3 | 24.1 | 0.00 | 0.00 | 0.00 | 91 | 1014.2 |
| 20260506110440 | 9 | 9 | 17.7 | 30.6 | 0.00 | 0.00 | 0.00 | 91 | 1014.3 |
| 20260506110218 | 9 | 10 | 14.5 | 22.5 | 0.00 | 0.00 | 0.00 | 91 | 1014.1 |
| 20260506110018 | 9 | 9 | 17.7 | 27.4 | 0.00 | 0.00 | 0.00 | 91 | 1014.2 |
| 20260506105825 | 9 | 1 | 22.5 | 29.0 | 0.00 | 0.00 | 0.00 | 91 | 1014.2 |
| 20260506105624 | 9 | 5 | 17.7 | 25.7 | 0.00 | 0.00 | 0.00 | 91 | 1014.4 |
| 20260506105444 | 9 | 8 | 14.5 | 22.5 | 0.00 | 0.00 | 0.00 | 91 | 1014.4 |
| 20260506105221 | 9 | 6 | 12.9 | 20.9 | 0.00 | 0.00 | 0.00 | 91 | 1014.3 |
| 20260506105019 | 9 | 355 | 14.5 | 35.4 | 0.00 | 0.00 | 0.00 | 90 | 1014.3 |
| 20260506104818 | 9 | 356 | 16.1 | 25.7 | 0.00 | 0.00 | 0.00 | 90 | 1014.0 |
| 20260506104617 | 9 | 353 | 12.9 | 27.4 | 0.00 | 0.00 | 0.00 | 90 | 1014.0 |
| 20260506104425 | 9 | 9 | 12.9 | 20.9 | 0.00 | 0.00 | 0.00 | 89 | 1014.1 |
| 20260506104226 | 9 | 2 | 12.9 | 19.3 | 0.00 | 0.00 | 0.00 | 89 | 1014.0 |
| 20260506104022 | 9 | 1 | 14.5 | 22.5 | 0.00 | 0.00 | 0.00 | 89 | 1014.1 |
| 20260506103821 | 9 | 3 | 19.3 | 25.7 | 0.00 | 0.00 | 0.00 | 89 | 1014.2 |
| 20260506103619 | 10 | 5 | 16.1 | 27.4 | 0.00 | 0.00 | 0.00 | 88 | 1014.3 |
| 20260506103418 | 10 | 356 | 17.7 | 29.0 | 0.00 | 0.00 | 0.00 | 87 | 1014.1 |
| 20260506103216 | 10 | 340 | 12.9 | 24.1 | 0.00 | 0.00 | 0.00 | 87 | 1014.0 |
| 20260506103025 | 10 | 15 | 19.3 | 27.4 | 0.00 | 0.00 | 0.00 | 86 | 1014.1 |
| 20260506102823 | 10 | 16 | 19.3 | 27.4 | 0.00 | 0.00 | 0.00 | 86 | 1013.9 |
| 20260506102622 | 10 | 1 | 20.9 | 27.4 | 0.00 | 0.00 | 0.00 | 85 | 1014.0 |
| 20260506102421 | 10 | 339 | 8.0 | 17.7 | 0.00 | 0.00 | 0.00 | 85 | 1014.1 |
| 20260506102219 | 10 | 347 | 11.3 | 20.9 | 0.00 | 0.00 | 0.00 | 85 | 1013.9 |
| 20260506102018 | 10 | 354 | 8.0 | 17.7 | 0.00 | 0.00 | 0.00 | 85 | 1013.9 |
| 20260506101816 | 10 | 342 | 17.7 | 30.6 | 0.00 | 0.00 | 0.00 | 85 | 1013.7 |
| 20260506101645 | 10 | 343 | 14.5 | 27.4 | 0.00 | 0.00 | 0.00 | 84 | 1013.9 |
| 20260506101425 | 10 | 350 | 12.9 | 22.5 | 0.00 | 0.00 | 0.00 | 84 | 1014.0 |
| 20260506101222 | 10 | 333 | 14.5 | 27.4 | 0.00 | 0.00 | 0.00 | 84 | 1013.9 |
| 20260506101020 | 10 | 340 | 16.1 | 25.7 | 0.00 | 0.00 | 0.00 | 84 | 1013.9 |
| 20260506100819 | 10 | 356 | 12.9 | 24.1 | 0.00 | 0.00 | 0.00 | 84 | 1013.9 |
| 20260506100618 | 10 | 10 | 9.7 | 19.3 | 0.00 | 0.00 | 0.00 | 84 | 1013.7 |
| 20260506100436 | 10 | 11 | 17.7 | 25.7 | 0.00 | 0.00 | 0.00 | 84 | 1013.9 |
| 20260506100305 | 10 | 355 | 11.3 | 19.3 | 0.00 | 0.00 | 0.00 | 84 | 1013.8 |
| 20260506100023 | 10 | 5 | 16.1 | 22.5 | 0.00 | 0.00 | 0.00 | 84 | 1013.5 |
| 20260506095844 | 10 | 353 | 11.3 | 25.7 | 0.00 | 0.00 | 0.00 | 84 | 1013.9 |
| 20260506095620 | 10 | 343 | 14.5 | 24.1 | 0.00 | 0.00 | 0.00 | 84 | 1014.0 |
| 20260506095418 | 10 | 1 | 14.5 | 30.6 | 0.00 | 0.00 | 0.00 | 83 | 1013.6 |
| 20260506095217 | 10 | 6 | 17.7 | 25.7 | 0.00 | 0.00 | 0.00 | 83 | 1013.6 |
| 20260506095016 | 11 | 337 | 14.5 | 24.1 | 0.00 | 0.00 | 0.00 | 83 | 1013.5 |
| 20260506094824 | 11 | 4 | 9.7 | 14.5 | 0.00 | 0.00 | 0.00 | 83 | 1013.4 |
| 20260506094442 | 11 | 344 | 12.9 | 17.7 | 0.00 | 0.00 | 0.00 | 82 | 1013.6 |
| 20260506094220 | 11 | 2 | 14.5 | 24.1 | 0.00 | 0.00 | 0.00 | 82 | 1013.3 |
| 20260506094018 | 11 | 358 | 14.5 | 29.0 | 0.00 | 0.00 | 0.00 | 82 | 1013.4 |
| 20260506093817 | 11 | 345 | 8.0 | 12.9 | 0.00 | 0.00 | 0.00 | 81 | 1013.4 |
| 20260506093618 | 11 | 359 | 9.7 | 17.7 | 0.00 | 0.00 | 0.00 | 81 | 1013.1 |
| 20260506093424 | 11 | 12 | 17.7 | 25.7 | 0.00 | 0.00 | 0.00 | 81 | 1013.0 |
| 20260506093223 | 11 | 341 | 17.7 | 25.7 | 0.00 | 0.00 | 0.00 | 81 | 1013.1 |
| 20260506093021 | 11 | 356 | 9.7 | 17.7 | 0.00 | 0.00 | 0.00 | 81 | 1012.9 |
| 20260506092821 | 11 | 9 | 12.9 | 19.3 | 0.00 | 0.00 | 0.00 | 81 | 1012.8 |
| 20260506092658 | 11 | 4 | 12.9 | 17.7 | 0.00 | 0.00 | 0.00 | 80 | 1013.0 |
| 20260506092439 | 11 | 359 | 8.0 | 12.9 | 0.00 | 0.00 | 0.00 | 80 | 1012.6 |
| 20260506092225 | 11 | 358 | 11.3 | 17.7 | 0.00 | 0.00 | 0.00 | 80 | 1012.9 |
| 20260506092024 | 11 | 10 | 11.3 | 14.5 | 0.00 | 0.00 | 0.00 | 80 | 1012.8 |
| 20260506091842 | 11 | 5 | 11.3 | 17.7 | 0.00 | 0.00 | 0.00 | 80 | 1012.9 |
| 20260506091641 | 11 | 12 | 9.7 | 16.1 | 0.00 | 0.00 | 0.00 | 80 | 1012.9 |
| 20260506091439 | 11 | 4 | 16.1 | 27.4 | 0.00 | 0.00 | 0.00 | 80 | 1012.7 |
| 20260506091220 | 11 | 4 | 9.7 | 14.5 | 0.00 | 0.00 | 0.00 | 80 | 1013.0 |
| 20260506091037 | 11 | 6 | 9.7 | 17.7 | 0.00 | 0.00 | 0.00 | 80 | 1012.9 |
| 20260506090825 | 11 | 8 | 11.3 | 19.3 | 0.00 | 0.00 | 0.00 | 80 | 1012.9 |
| 20260506090625 | 11 | 14 | 14.5 | 19.3 | 0.00 | 0.00 | 0.00 | 80 | 1012.7 |
| 20260506090422 | 11 | 12 | 11.3 | 16.1 | 0.00 | 0.00 | 0.00 | 80 | 1012.7 |
| 20260506090241 | 11 | 352 | 9.7 | 16.1 | 0.00 | 0.00 | 0.00 | 80 | 1012.6 |
| 20260506090019 | 11 | 358 | 12.9 | 24.1 | 0.00 | 0.00 | 0.00 | 80 | 1012.7 |
| 20260506085819 | 11 | 10 | 8.0 | 12.9 | 0.00 | 0.00 | 0.00 | 80 | 1012.6 |
| 20260506085636 | 11 | 13 | 16.1 | 22.5 | 0.00 | 0.00 | 0.00 | 79 | 1012.5 |
| 20260506085425 | 11 | 18 | 19.3 | 24.1 | 0.00 | 0.00 | 0.00 | 79 | 1012.5 |
| 20260506085223 | 11 | 3 | 11.3 | 17.7 | 0.00 | 0.00 | 0.00 | 80 | 1012.5 |
| 20260506085022 | 11 | 13 | 16.1 | 19.3 | 0.00 | 0.00 | 0.00 | 80 | 1012.5 |
| 20260506084820 | 11 | 7 | 12.9 | 22.5 | 0.00 | 0.00 | 0.00 | 80 | 1012.5 |
| 20260506084639 | 11 | 359 | 11.3 | 17.7 | 0.00 | 0.00 | 0.00 | 80 | 1012.7 |
| 20260506084418 | 11 | 4 | 9.7 | 16.1 | 0.00 | 0.00 | 0.00 | 80 | 1012.4 |
| 20260506084216 | 11 | 4 | 9.7 | 16.1 | 0.00 | 0.00 | 0.00 | 80 | 1012.7 |
| 20260506084025 | 11 | 13 | 14.5 | 20.9 | 0.00 | 0.00 | 0.00 | 80 | 1012.6 |
| 20260506083825 | 11 | 8 | 12.9 | 17.7 | 0.00 | 0.00 | 0.00 | 80 | 1012.7 |
| 20260506083622 | 11 | 10 | 11.3 | 19.3 | 0.00 | 0.00 | 0.00 | 80 | 1012.5 |
| 20260506083421 | 11 | 352 | 8.0 | 12.9 | 0.00 | 0.00 | 0.00 | 80 | 1012.6 |
| 20260506083219 | 11 | 2 | 9.7 | 14.5 | 0.00 | 0.00 | 0.00 | 80 | 1012.6 |
| 20260506083020 | 11 | 347 | 9.7 | 16.1 | 0.00 | 0.00 | 0.00 | 80 | 1012.4 |
| 20260506082816 | 11 | 358 | 11.3 | 17.7 | 0.00 | 0.00 | 0.00 | 80 | 1012.6 |
| 20260506082627 | 11 | 3 | 12.9 | 22.5 | 0.00 | 0.00 | 0.00 | 80 | 1012.4 |
| 20260506082443 | 11 | 358 | 11.3 | 19.3 | 0.00 | 0.00 | 0.00 | 80 | 1012.4 |
| 20260506082221 | 11 | 352 | 12.9 | 17.7 | 0.00 | 0.00 | 0.00 | 80 | 1012.4 |
| 20260506082020 | 11 | 337 | 9.7 | 16.1 | 0.00 | 0.00 | 0.00 | 80 | 1012.4 |
| 20260506081818 | 11 | 358 | 8.0 | 20.9 | 0.00 | 0.00 | 0.00 | 80 | 1012.4 |
| 20260506081657 | 11 | 354 | 6.4 | 12.9 | 0.00 | 0.00 | 0.00 | 80 | 1012.6 |
| 20260506081416 | 11 | 345 | 8.0 | 14.5 | 0.00 | 0.00 | 0.00 | 80 | 1012.5 |
| 20260506081224 | 11 | 9 | 6.4 | 11.3 | 0.00 | 0.00 | 0.00 | 81 | 1012.6 |
| 20260506081023 | 11 | 359 | 8.0 | 12.9 | 0.00 | 0.00 | 0.00 | 80 | 1012.6 |
| 20260506080821 | 11 | 351 | 8.0 | 16.1 | 0.00 | 0.00 | 0.00 | 80 | 1012.6 |
| 20260506080620 | 11 | 8 | 11.3 | 17.7 | 0.00 | 0.00 | 0.00 | 80 | 1012.5 |
| 20260506080439 | 11 | 11 | 9.7 | 17.7 | 0.00 | 0.00 | 0.00 | 80 | 1012.5 |
| 20260506080217 | 11 | 11 | 11.3 | 16.1 | 0.00 | 0.00 | 0.00 | 80 | 1012.7 |
| 20260506073416 | 11 | 3 | 11.3 | 17.7 | 0.00 | 0.00 | 0.00 | 80 | 1012.6 |
| 20260506073225 | 11 | 18 | 9.7 | 12.9 | 0.00 | 0.00 | 0.00 | 80 | 1012.3 |
| 20260506073024 | 11 | 356 | 8.0 | 12.9 | 0.00 | 0.00 | 0.00 | 80 | 1012.3 |
| 20260506072822 | 11 | 1 | 9.7 | 16.1 | 0.00 | 0.00 | 0.00 | 80 | 1012.2 |
| 20260506072621 | 11 | 9 | 16.1 | 22.5 | 0.00 | 0.00 | 0.00 | 80 | 1012.5 |
| 20260506072420 | 11 | 4 | 14.5 | 20.9 | 0.00 | 0.00 | 0.00 | 80 | 1012.3 |
| 20260506072218 | 11 | 7 | 12.9 | 20.9 | 0.00 | 0.00 | 0.00 | 80 | 1012.3 |
| 20260506072017 | 11 | 9 | 11.3 | 19.3 | 0.00 | 0.00 | 0.00 | 80 | 1012.5 |
| 20260506071846 | 12 | 9 | 14.5 | 19.3 | 0.00 | 0.00 | 0.00 | 80 | 1012.5 |
| 20260506071624 | 12 | 12 | 9.7 | 19.3 | 0.00 | 0.00 | 0.00 | 80 | 1012.3 |
| 20260506071422 | 12 | 11 | 14.5 | 19.3 | 0.00 | 0.00 | 0.00 | 80 | 1012.3 |
| 20260506071221 | 12 | 358 | 11.3 | 20.9 | 0.00 | 0.00 | 0.00 | 80 | 1012.3 |
| 20260506071019 | 12 | 357 | 14.5 | 24.1 | 0.00 | 0.00 | 0.00 | 80 | 1012.3 |
| 20260506070819 | 12 | 6 | 9.7 | 19.3 | 0.00 | 0.00 | 0.00 | 81 | 1012.2 |
| 20260506070616 | 12 | 2 | 12.9 | 22.5 | 0.00 | 0.00 | 0.00 | 81 | 1011.7 |
| 20260506070425 | 12 | 10 | 9.7 | 17.7 | 0.00 | 0.00 | 0.00 | 81 | 1011.6 |
| 20260506070227 | 12 | 28 | 12.9 | 20.9 | 0.00 | 0.00 | 0.00 | 81 | 1011.6 |
| 20260506062416 | 12 | 20 | 11.3 | 20.9 | 0.00 | 0.00 | 0.00 | 81 | 1012.0 |
| 20260506062227 | 12 | 29 | 14.5 | 19.3 | 0.00 | 0.00 | 0.00 | 82 | 1012.0 |
| 20260506062023 | 12 | 19 | 12.9 | 25.7 | 0.00 | 0.00 | 0.00 | 82 | 1012.3 |
| 20260506061843 | 12 | 3 | 9.7 | 16.1 | 0.00 | 0.00 | 0.00 | 82 | 1012.2 |
| 20260506061622 | 12 | 9 | 14.5 | 22.5 | 0.00 | 0.00 | 0.00 | 82 | 1012.2 |
| 20260506061419 | 12 | 11 | 11.3 | 14.5 | 0.00 | 0.00 | 0.00 | 82 | 1012.0 |
| 20260506061217 | 12 | 13 | 11.3 | 16.1 | 0.00 | 0.00 | 0.00 | 82 | 1012.1 |
| 20260506061036 | 12 | 13 | 14.5 | 22.5 | 0.00 | 0.00 | 0.00 | 82 | 1012.1 |
| 20260506060845 | 12 | 16 | 12.9 | 19.3 | 0.00 | 0.00 | 0.00 | 82 | 1012.3 |
| 20260506060623 | 12 | 11 | 11.3 | 17.7 | 0.00 | 0.00 | 0.00 | 82 | 1012.2 |
| 20260506060423 | 12 | 18 | 16.1 | 20.9 | 0.00 | 0.00 | 0.00 | 82 | 1011.9 |
| 20260506060300 | 12 | 16 | 16.1 | 20.9 | 0.00 | 0.00 | 0.00 | 82 | 1012.0 |
| 20260506051225 | 12 | 9 | 14.5 | 17.7 | 0.00 | 0.00 | 0.00 | 82 | 1012.3 |
| 20260506051025 | 12 | 12 | 14.5 | 24.1 | 0.00 | 0.00 | 0.00 | 82 | 1012.4 |
| 20260506050901 | 12 | 7 | 12.9 | 20.9 | 0.00 | 0.00 | 0.00 | 82 | 1012.2 |
| 20260506050639 | 12 | 15 | 8.0 | 9.7 | 0.00 | 0.00 | 0.00 | 82 | 1012.3 |
| 20260506050418 | 12 | 19 | 11.3 | 17.7 | 0.00 | 0.00 | 0.00 | 82 | 1012.4 |
| 20260506050216 | 12 | 16 | 14.5 | 20.9 | 0.00 | 0.00 | 0.00 | 82 | 1012.3 |
| 20260506045041 | 12 | 357 | 9.7 | 19.3 | 0.00 | 0.00 | 0.00 | 83 | 1012.4 |
| 20260506044816 | 12 | 8 | 11.3 | 16.1 | 0.00 | 0.00 | 0.00 | 83 | 1012.3 |
| 20260506044625 | 12 | 8 | 12.9 | 20.9 | 0.00 | 0.00 | 0.00 | 83 | 1012.1 |
| 20260506044444 | 12 | 11 | 17.7 | 22.5 | 0.00 | 0.00 | 0.00 | 83 | 1012.1 |
| 20260506044222 | 12 | 12 | 12.9 | 19.3 | 0.00 | 0.00 | 0.00 | 83 | 1012.3 |
| 20260506044021 | 12 | 10 | 14.5 | 19.3 | 0.00 | 0.00 | 0.00 | 83 | 1012.1 |
| 20260506043820 | 12 | 20 | 17.7 | 20.9 | 0.00 | 0.00 | 0.00 | 83 | 1012.1 |
| 20260506043617 | 12 | 15 | 14.5 | 24.1 | 0.00 | 0.00 | 0.00 | 82 | 1012.4 |
| 20260506043436 | 13 | 355 | 11.3 | 24.1 | 0.00 | 0.00 | 0.00 | 82 | 1012.3 |
| 20260506043247 | 13 | 1 | 11.3 | 16.1 | 0.00 | 0.00 | 0.00 | 83 | 1012.4 |
| 20260506043023 | 13 | 9 | 14.5 | 24.1 | 0.00 | 0.00 | 0.00 | 83 | 1012.3 |
| 20260506042823 | 13 | 358 | 12.9 | 19.3 | 0.00 | 0.00 | 0.00 | 83 | 1012.5 |
| 20260506042620 | 13 | 6 | 19.3 | 25.7 | 0.00 | 0.00 | 0.00 | 83 | 1012.5 |
| 20260506042420 | 13 | 10 | 17.7 | 24.1 | 0.00 | 0.00 | 0.00 | 83 | 1012.3 |
| 20260506042238 | 13 | 11 | 16.1 | 24.1 | 0.00 | 0.00 | 0.00 | 83 | 1012.3 |
| 20260506042016 | 13 | 7 | 12.9 | 24.1 | 0.00 | 0.00 | 0.00 | 83 | 1012.3 |
| 20260506041825 | 13 | 12 | 20.9 | 27.4 | 0.00 | 0.00 | 0.00 | 83 | 1012.3 |
| 20260506041623 | 13 | 10 | 14.5 | 22.5 | 0.00 | 0.00 | 0.00 | 84 | 1012.2 |
| 20260506041442 | 13 | 14 | 19.3 | 29.0 | 0.00 | 0.00 | 0.00 | 84 | 1012.1 |
| 20260506041220 | 13 | 12 | 17.7 | 22.5 | 0.00 | 0.00 | 0.00 | 84 | 1012.1 |
| 20260506041018 | 13 | 8 | 19.3 | 29.0 | 0.00 | 0.00 | 0.00 | 84 | 1012.1 |
| 20260506040817 | 13 | 6 | 11.3 | 16.1 | 0.00 | 0.00 | 0.00 | 84 | 1012.0 |
| 20260506040616 | 13 | 10 | 12.9 | 20.9 | 0.00 | 0.00 | 0.00 | 84 | 1012.0 |
| 20260506040424 | 13 | 11 | 14.5 | 24.1 | 0.00 | 0.00 | 0.00 | 84 | 1012.1 |
| 20260506040223 | 13 | 17 | 19.3 | 27.4 | 0.00 | 0.00 | 0.00 | 85 | 1012.3 |
| 20260506040021 | 13 | 14 | 19.3 | 30.6 | 0.00 | 0.00 | 0.00 | 85 | 1012.2 |
| 20260506035900 | 13 | 3 | 12.9 | 17.7 | 0.00 | 0.00 | 0.00 | 86 | 1012.2 |
| 20260506035618 | 13 | 18 | 12.9 | 20.9 | 0.00 | 0.00 | 0.00 | 86 | 1012.2 |
| 20260506035417 | 13 | 358 | 12.9 | 19.3 | 0.00 | 0.00 | 0.00 | 86 | 1011.9 |
| 20260506035216 | 13 | 8 | 9.7 | 16.1 | 0.00 | 0.00 | 0.00 | 86 | 1012.0 |
| 20260506035044 | 13 | 2 | 12.9 | 19.3 | 0.00 | 0.00 | 0.00 | 86 | 1012.0 |
| 20260506034903 | 13 | 356 | 9.7 | 16.1 | 0.00 | 0.00 | 0.00 | 86 | 1012.0 |
| 20260506034621 | 13 | 6 | 8.0 | 11.3 | 0.00 | 0.00 | 0.00 | 86 | 1012.1 |
| 20260506034420 | 13 | 358 | 11.3 | 17.7 | 0.00 | 0.00 | 0.00 | 86 | 1011.9 |
| 20260506034219 | 13 | 356 | 11.3 | 19.3 | 0.00 | 0.00 | 0.00 | 86 | 1011.9 |
| 20260506034018 | 13 | 341 | 11.3 | 20.9 | 0.00 | 0.00 | 0.00 | 86 | 1011.8 |
| 20260506033845 | 13 | 15 | 11.3 | 17.7 | 0.00 | 0.00 | 0.00 | 86 | 1011.9 |
| 20260506033624 | 13 | 2 | 8.0 | 12.9 | 0.00 | 0.00 | 0.00 | 86 | 1012.0 |
| 20260506033423 | 13 | 12 | 9.7 | 16.1 | 0.00 | 0.00 | 0.00 | 86 | 1012.1 |
| 20260506033241 | 13 | 12 | 12.9 | 17.7 | 0.00 | 0.00 | 0.00 | 86 | 1011.8 |
| 20260506033020 | 13 | 7 | 8.0 | 17.7 | 0.00 | 0.00 | 0.00 | 86 | 1011.9 |
| 20260506032838 | 13 | 4 | 11.3 | 16.1 | 0.00 | 0.00 | 0.00 | 86 | 1011.8 |
| 20260506032617 | 13 | 6 | 12.9 | 22.5 | 0.00 | 0.00 | 0.00 | 86 | 1011.8 |
| 20260506032425 | 13 | 15 | 12.9 | 25.7 | 0.00 | 0.00 | 0.00 | 86 | 1012.0 |
| 20260506032224 | 13 | 16 | 20.9 | 27.4 | 0.00 | 0.00 | 0.00 | 86 | 1011.8 |
| 20260506032022 | 13 | 15 | 19.3 | 30.6 | 0.00 | 0.00 | 0.00 | 86 | 1011.6 |
| 20260506031821 | 13 | 9 | 17.7 | 24.1 | 0.00 | 0.00 | 0.00 | 86 | 1011.7 |
| 20260506031619 | 13 | 16 | 14.5 | 17.7 | 0.00 | 0.00 | 0.00 | 86 | 1011.6 |
| 20260506031418 | 13 | 11 | 11.3 | 17.7 | 0.00 | 0.00 | 0.00 | 86 | 1011.5 |
| 20260506031217 | 13 | 353 | 12.9 | 19.3 | 0.00 | 0.00 | 0.00 | 86 | 1011.4 |
| 20260506031025 | 14 | 354 | 12.9 | 19.3 | 0.00 | 0.00 | 0.00 | 86 | 1011.5 |
| 20260506030824 | 14 | 16 | 9.7 | 17.7 | 0.00 | 0.00 | 0.00 | 86 | 1011.4 |
| 20260506030622 | 14 | 19 | 12.9 | 14.5 | 0.00 | 0.00 | 0.00 | 86 | 1011.3 |
| 20260506030421 | 14 | 12 | 9.7 | 17.7 | 0.00 | 0.00 | 0.00 | 86 | 1011.2 |
| 20260506030220 | 14 | 25 | 16.1 | 24.1 | 0.00 | 0.00 | 0.00 | 86 | 1011.3 |
| 20260506030018 | 14 | 12 | 11.3 | 19.3 | 0.00 | 0.00 | 0.00 | 86 | 1011.5 |
| 20260506025816 | 14 | 7 | 8.0 | 11.3 | 0.00 | 0.00 | 0.00 | 86 | 1011.6 |
| 20260506025645 | 14 | 12 | 9.7 | 12.9 | 0.00 | 0.00 | 0.00 | 86 | 1011.4 |
| 20260506025423 | 14 | 24 | 12.9 | 19.3 | 0.00 | 0.00 | 0.00 | 85 | 1011.3 |
| 20260506025222 | 14 | 16 | 12.9 | 14.5 | 0.00 | 0.00 | 0.00 | 85 | 1011.4 |
| 20260506025020 | 14 | 22 | 14.5 | 19.3 | 0.00 | 0.00 | 0.00 | 85 | 1011.3 |
| 20260506024819 | 14 | 29 | 11.3 | 19.3 | 0.00 | 0.00 | 0.00 | 85 | 1011.3 |
| 20260506024617 | 14 | 20 | 9.7 | 16.1 | 0.00 | 0.00 | 0.00 | 85 | 1011.3 |
| 20260506024416 | 14 | 13 | 9.7 | 16.1 | 0.00 | 0.00 | 0.00 | 85 | 1011.3 |
| 20260506024225 | 14 | 3 | 11.3 | 17.7 | 0.00 | 0.00 | 0.00 | 85 | 1011.3 |
| 20260506024023 | 14 | 15 | 14.5 | 17.7 | 0.00 | 0.00 | 0.00 | 85 | 1011.3 |
| 20260506023842 | 14 | 24 | 12.9 | 22.5 | 0.00 | 0.00 | 0.00 | 85 | 1011.2 |
| 20260506023620 | 14 | 18 | 12.9 | 17.7 | 0.00 | 0.00 | 0.00 | 85 | 1011.3 |
| 20260506023419 | 15 | 14 | 12.9 | 17.7 | 0.00 | 0.00 | 0.00 | 85 | 1011.2 |
| 20260506023217 | 15 | 7 | 9.7 | 17.7 | 0.00 | 0.00 | 0.00 | 85 | 1011.3 |
| 20260506023016 | 15 | 5 | 11.3 | 17.7 | 0.00 | 0.00 | 0.00 | 85 | 1011.3 |
| 20260506022825 | 15 | 358 | 6.4 | 11.3 | 0.00 | 0.00 | 0.00 | 85 | 1011.0 |
| 20260506022623 | 15 | 1 | 8.0 | 9.7 | 0.00 | 0.00 | 0.00 | 85 | 1010.9 |
| 20260506022421 | 15 | 14 | 8.0 | 14.5 | 0.00 | 0.00 | 0.00 | 85 | 1011.0 |
| 20260506022220 | 15 | 14 | 12.9 | 17.7 | 0.00 | 0.00 | 0.00 | 85 | 1010.7 |
| 20260506022019 | 15 | 2 | 11.3 | 19.3 | 0.00 | 0.00 | 0.00 | 85 | 1010.7 |
| 20260506021837 | 15 | 9 | 12.9 | 19.3 | 0.00 | 0.00 | 0.00 | 85 | 1010.6 |
| 20260506021615 | 15 | 8 | 12.9 | 16.1 | 0.00 | 0.00 | 0.00 | 85 | 1010.7 |
| 20260506021427 | 15 | 28 | 24.1 | 27.4 | 0.00 | 0.00 | 0.00 | 84 | 1010.6 |
| 20260506021223 | 15 | 12 | 9.7 | 12.9 | 0.00 | 0.00 | 0.00 | 85 | 1010.4 |
| 20260506021041 | 15 | 13 | 11.3 | 14.5 | 0.00 | 0.00 | 0.00 | 85 | 1010.3 |
| 20260506020820 | 15 | 15 | 14.5 | 20.9 | 0.00 | 0.00 | 0.00 | 84 | 1010.0 |
| 20260506020619 | 15 | 20 | 14.5 | 19.3 | 0.00 | 0.00 | 0.00 | 84 | 1010.1 |
| 20260506020439 | 15 | 33 | 12.9 | 20.9 | 0.00 | 0.00 | 0.00 | 84 | 1009.9 |
| 20260506020216 | 15 | 16 | 14.5 | 25.7 | 0.00 | 0.00 | 0.00 | 84 | 1009.9 |
| 20260506020024 | 15 | 19 | 17.7 | 25.7 | 0.00 | 0.00 | 0.00 | 84 | 1009.9 |
| 20260506015823 | 15 | 12 | 17.7 | 25.7 | 0.00 | 0.00 | 0.00 | 84 | 1009.6 |
| 20260506015621 | 15 | 17 | 17.7 | 27.4 | 0.00 | 0.00 | 0.00 | 84 | 1009.6 |
| 20260506015421 | 15 | 18 | 17.7 | 30.6 | 0.00 | 0.00 | 0.00 | 83 | 1009.6 |
| 20260506015218 | 15 | 23 | 24.1 | 30.6 | 0.00 | 0.00 | 0.00 | 83 | 1009.5 |
| 20260506015037 | 15 | 14 | 16.1 | 22.5 | 0.00 | 0.00 | 0.00 | 84 | 1009.3 |
| 20260506014825 | 15 | 19 | 19.3 | 29.0 | 0.00 | 0.00 | 0.00 | 84 | 1009.2 |
| 20260506014624 | 15 | 19 | 12.9 | 16.1 | 0.00 | 0.00 | 0.00 | 83 | 1009.0 |
| 20260506014422 | 16 | 18 | 16.1 | 17.7 | 0.00 | 0.00 | 0.00 | 83 | 1009.0 |
| 20260506014221 | 16 | 15 | 17.7 | 24.1 | 0.00 | 0.00 | 0.00 | 83 | 1008.8 |
| 20260506014020 | 16 | 9 | 14.5 | 24.1 | 0.00 | 0.00 | 0.00 | 83 | 1008.9 |
| 20260506013818 | 16 | 11 | 17.7 | 27.4 | 0.00 | 0.00 | 0.00 | 82 | 1009.0 |
| 20260506013616 | 16 | 11 | 19.3 | 30.6 | 0.00 | 0.00 | 0.00 | 82 | 1009.0 |
| 20260506013426 | 16 | 18 | 19.3 | 27.4 | 0.00 | 0.00 | 0.00 | 82 | 1008.9 |
| 20260506013224 | 16 | 17 | 17.7 | 29.0 | 0.00 | 0.00 | 0.00 | 82 | 1008.9 |
| 20260506013023 | 16 | 16 | 17.7 | 25.7 | 0.00 | 0.00 | 0.00 | 82 | 1008.5 |
| 20260506012821 | 16 | 10 | 14.5 | 19.3 | 0.00 | 0.00 | 0.00 | 82 | 1008.6 |
| 20260506012639 | 16 | 11 | 20.9 | 30.6 | 0.00 | 0.00 | 0.00 | 81 | 1008.5 |
| 20260506012418 | 16 | 20 | 19.3 | 27.4 | 0.00 | 0.00 | 0.00 | 82 | 1008.5 |
| 20260506012216 | 16 | 3 | 12.9 | 22.5 | 0.00 | 0.00 | 0.00 | 82 | 1008.6 |
| 20260506012025 | 16 | 346 | 9.7 | 16.1 | 0.00 | 0.00 | 0.00 | 81 | 1008.6 |
| 20260506011824 | 16 | 4 | 14.5 | 27.4 | 0.00 | 0.00 | 0.00 | 81 | 1008.8 |
| 20260506011703 | 17 | 352 | 9.7 | 24.1 | 0.00 | 0.00 | 0.00 | 81 | 1008.5 |
| 20260506011422 | 17 | 356 | 17.7 | 27.4 | 0.00 | 0.00 | 0.00 | 81 | 1008.5 |
| 20260506011219 | 17 | 356 | 11.3 | 20.9 | 0.00 | 0.00 | 0.00 | 81 | 1008.4 |
| 20260506011017 | 17 | 358 | 11.3 | 22.5 | 0.00 | 0.00 | 0.00 | 81 | 1008.3 |
| 20260506010836 | 17 | 360 | 12.9 | 19.3 | 0.00 | 0.00 | 0.00 | 80 | 1008.2 |
| 20260506010625 | 17 | 360 | 12.9 | 27.4 | 0.00 | 0.00 | 0.00 | 80 | 1008.3 |
| 20260506010423 | 17 | 359 | 14.5 | 22.5 | 0.00 | 0.00 | 0.00 | 80 | 1008.2 |
| 20260506010224 | 17 | 338 | 16.1 | 24.1 | 0.00 | 0.00 | 0.00 | 80 | 1008.2 |
| 20260506010020 | 17 | 353 | 9.7 | 20.9 | 0.00 | 0.00 | 0.00 | 80 | 1008.2 |
| 20260506005819 | 17 | 352 | 14.5 | 25.7 | 0.00 | 0.00 | 0.00 | 79 | 1008.3 |
| 20260506005638 | 17 | 343 | 11.3 | 20.9 | 0.00 | 0.00 | 0.00 | 79 | 1008.1 |
| 20260506005417 | 17 | 360 | 14.5 | 22.5 | 0.00 | 0.00 | 0.00 | 79 | 1008.2 |
| 20260506005225 | 17 | 342 | 9.7 | 22.5 | 0.00 | 0.00 | 0.00 | 79 | 1008.0 |
| 20260506005024 | 17 | 10 | 9.7 | 24.1 | 0.00 | 0.00 | 0.00 | 79 | 1008.2 |
| 20260506004822 | 17 | 339 | 12.9 | 22.5 | 0.00 | 0.00 | 0.00 | 79 | 1008.0 |
| 20260506004620 | 17 | 6 | 11.3 | 19.3 | 0.00 | 0.00 | 0.00 | 79 | 1008.0 |
| 20260506004419 | 17 | 9 | 12.9 | 20.9 | 0.00 | 0.00 | 0.00 | 79 | 1007.7 |
| 20260506004218 | 17 | 5 | 12.9 | 22.5 | 0.00 | 0.00 | 0.00 | 79 | 1007.8 |
| 20260506004016 | 17 | 344 | 11.3 | 20.9 | 0.00 | 0.00 | 0.00 | 79 | 1008.2 |
| 20260506003905 | 17 | 15 | 11.3 | 20.9 | 0.00 | 0.00 | 0.00 | 79 | 1008.5 |
| 20260506003623 | 17 | 336 | 14.5 | 22.5 | 0.00 | 0.00 | 0.00 | 78 | 1008.4 |
| 20260506003442 | 18 | 337 | 12.9 | 20.9 | 0.00 | 0.00 | 0.00 | 79 | 1008.4 |
| 20260506003220 | 18 | 336 | 11.3 | 19.3 | 0.00 | 0.00 | 0.00 | 79 | 1008.3 |
| 20260506003019 | 18 | 345 | 9.7 | 17.7 | 0.00 | 0.00 | 0.00 | 79 | 1008.2 |
| 20260506002817 | 18 | 330 | 14.5 | 24.1 | 0.00 | 0.00 | 0.00 | 79 | 1008.3 |
| 20260506002617 | 18 | 354 | 9.7 | 19.3 | 0.00 | 0.00 | 0.00 | 79 | 1008.3 |
| 20260506002424 | 18 | 339 | 9.7 | 16.1 | 0.00 | 0.00 | 0.00 | 78 | 1008.2 |
| 20260506002224 | 18 | 345 | 8.0 | 16.1 | 0.00 | 0.00 | 0.00 | 78 | 1008.0 |
| 20260506002022 | 18 | 349 | 11.3 | 24.1 | 0.00 | 0.00 | 0.00 | 78 | 1007.9 |
| 20260506001841 | 18 | 349 | 9.7 | 17.7 | 0.00 | 0.00 | 0.00 | 78 | 1008.0 |
| 20260506001619 | 18 | 341 | 16.1 | 25.7 | 0.00 | 0.00 | 0.00 | 78 | 1008.2 |
| 20260506001417 | 18 | 356 | 8.0 | 17.7 | 0.00 | 0.00 | 0.00 | 78 | 1008.0 |
| 20260506001215 | 18 | 7 | 14.5 | 24.1 | 0.00 | 0.00 | 0.00 | 77 | 1008.2 |
| 20260506001024 | 18 | 345 | 11.3 | 20.9 | 0.00 | 0.00 | 0.00 | 78 | 1008.2 |
| 20260506000823 | 18 | 330 | 6.4 | 12.9 | 0.00 | 0.00 | 0.00 | 78 | 1008.4 |
| 20260506000621 | 18 | 343 | 6.4 | 14.5 | 0.00 | 0.00 | 0.00 | 78 | 1008.3 |
| 20260506000420 | 18 | 317 | 12.9 | 22.5 | 0.00 | 0.00 | 0.00 | 77 | 1008.3 |
| 20260506000219 | 18 | 334 | 12.9 | 17.7 | 0.00 | 0.00 | 0.00 | 77 | 1008.1 |
| 20260506000017 | 18 | 339 | 9.7 | 19.3 | 0.00 | 0.00 | 0.00 | 76 | 1007.8 |
| 20260505235846 | 18 | 340 | 14.5 | 20.9 | 0.00 | 0.00 | 0.00 | 76 | 1007.8 |
| 20260505235624 | 18 | 329 | 8.0 | 14.5 | 0.00 | 0.00 | 0.00 | 76 | 1008.2 |
| 20260505235422 | 18 | 345 | 11.3 | 20.9 | 0.00 | 0.00 | 0.00 | 76 | 1008.2 |
| 20260505235241 | 18 | 341 | 12.9 | 22.5 | 0.00 | 0.00 | 0.00 | 76 | 1008.3 |
| 20260505235040 | 18 | 330 | 22.5 | 32.2 | 0.00 | 0.00 | 0.00 | 75 | 1008.2 |
| 20260505234819 | 18 | 350 | 11.3 | 19.3 | 0.00 | 0.00 | 0.00 | 75 | 1008.0 |
| 20260505234637 | 18 | 337 | 12.9 | 27.4 | 0.00 | 0.00 | 0.00 | 75 | 1008.0 |
| 20260505234425 | 18 | 351 | 16.1 | 20.9 | 0.00 | 0.00 | 0.00 | 75 | 1008.0 |
| 20260505234224 | 18 | 348 | 19.3 | 32.2 | 0.00 | 0.00 | 0.00 | 75 | 1008.0 |
| 20260505234022 | 19 | 353 | 8.0 | 17.7 | 0.00 | 0.00 | 0.00 | 76 | 1007.8 |
| 20260505233823 | 19 | 343 | 19.3 | 25.7 | 0.00 | 0.00 | 0.00 | 75 | 1007.9 |
| 20260505233700 | 19 | 336 | 19.3 | 33.8 | 0.00 | 0.00 | 0.00 | 75 | 1008.0 |
| 20260505233438 | 19 | 343 | 14.5 | 20.9 | 0.00 | 0.00 | 0.00 | 75 | 1008.2 |
| 20260505233216 | 19 | 348 | 17.7 | 29.0 | 0.00 | 0.00 | 0.00 | 75 | 1008.2 |
| 20260505233026 | 19 | 335 | 19.3 | 32.2 | 0.00 | 0.00 | 0.00 | 75 | 1008.3 |
| 20260505232823 | 19 | 316 | 17.7 | 24.1 | 0.00 | 0.00 | 0.00 | 75 | 1008.2 |
| 20260505232622 | 19 | 314 | 17.7 | 27.4 | 0.00 | 0.00 | 0.00 | 75 | 1008.3 |
| 20260505232421 | 20 | 321 | 24.1 | 40.2 | 0.00 | 0.00 | 0.00 | 74 | 1008.3 |
| 20260505232219 | 20 | 330 | 14.5 | 30.6 | 0.00 | 0.00 | 0.00 | 75 | 1008.2 |
| 20260505232018 | 20 | 319 | 14.5 | 20.9 | 0.00 | 0.00 | 0.00 | 75 | 1007.9 |
| 20260505231816 | 20 | 337 | 11.3 | 20.9 | 0.00 | 0.00 | 0.00 | 75 | 1007.6 |
| 20260505231625 | 20 | 340 | 17.7 | 27.4 | 0.00 | 0.00 | 0.00 | 75 | 1007.5 |
| 20260505231423 | 20 | 348 | 17.7 | 27.4 | 0.00 | 0.00 | 0.00 | 74 | 1007.6 |
| 20260505231222 | 20 | 336 | 16.1 | 30.6 | 0.00 | 0.00 | 0.00 | 74 | 1007.6 |
| 20260505231020 | 20 | 338 | 20.9 | 37.0 | 0.00 | 0.00 | 0.00 | 74 | 1007.6 |
| 20260505230839 | 20 | 334 | 19.3 | 27.4 | 0.00 | 0.00 | 0.00 | 73 | 1007.5 |
| 20260505230416 | 20 | 345 | 11.3 | 27.4 | 0.00 | 0.00 | 0.00 | 73 | 1007.8 |
| 20260505230225 | 20 | 323 | 19.3 | 25.7 | 0.00 | 0.00 | 0.00 | 72 | 1007.8 |
| 20260505230023 | 21 | 317 | 25.7 | 35.4 | 0.00 | 0.00 | 0.00 | 72 | 1007.6 |
| 20260505225902 | 21 | 316 | 29.0 | 43.5 | 0.00 | 0.00 | 0.00 | 72 | 1007.8 |
| 20260505225620 | 21 | 321 | 24.1 | 30.6 | 0.00 | 0.00 | 0.00 | 72 | 1007.5 |
| 20260505225420 | 21 | 318 | 22.5 | 32.2 | 0.00 | 0.00 | 0.00 | 72 | 1007.6 |
| 20260505225217 | 21 | 323 | 25.7 | 33.8 | 0.00 | 0.00 | 0.00 | 72 | 1007.6 |
| 20260505225016 | 21 | 323 | 17.7 | 24.1 | 0.00 | 0.00 | 0.00 | 73 | 1007.7 |
| 20260505224924 | 21 | 320 | 17.7 | 24.1 | 0.00 | 0.00 | 0.00 | 73 | 1007.6 |
| 20260505224624 | 21 | 327 | 24.1 | 38.6 | 0.00 | 0.00 | 0.00 | 72 | 1007.5 |
| 20260505224422 | 21 | 323 | 20.9 | 29.0 | 0.00 | 0.00 | 0.00 | 72 | 1007.7 |
| 20260505224220 | 21 | 343 | 17.7 | 35.4 | 0.00 | 0.00 | 0.00 | 72 | 1007.7 |
| 20260505224019 | 21 | 346 | 19.3 | 27.4 | 0.00 | 0.00 | 0.00 | 72 | 1007.8 |
| 20260505223817 | 21 | 327 | 14.5 | 27.4 | 0.00 | 0.00 | 0.00 | 73 | 1007.9 |
| 20260505223615 | 21 | 322 | 14.5 | 20.9 | 0.00 | 0.00 | 0.00 | 73 | 1007.8 |
| 20260505223424 | 21 | 308 | 20.9 | 29.0 | 0.00 | 0.00 | 0.00 | 72 | 1007.7 |
| 20260505223223 | 21 | 312 | 27.4 | 40.2 | 0.00 | 0.00 | 0.00 | 72 | 1007.7 |
| 20260505223041 | 21 | 312 | 30.6 | 37.0 | 0.00 | 0.00 | 0.00 | 72 | 1007.8 |
| 20260505222821 | 21 | 322 | 20.9 | 29.0 | 0.00 | 0.00 | 0.00 | 72 | 1007.7 |
| 20260505222618 | 21 | 317 | 29.0 | 33.8 | 0.00 | 0.00 | 0.00 | 72 | 1007.6 |
| 20260505222417 | 21 | 304 | 22.5 | 27.4 | 0.00 | 0.00 | 0.00 | 72 | 1007.5 |
| 20260505222225 | 22 | 316 | 25.7 | 32.2 | 0.00 | 0.00 | 0.00 | 71 | 1007.4 |
| 20260505222024 | 22 | 316 | 24.1 | 29.0 | 0.00 | 0.00 | 0.00 | 72 | 1007.5 |
| 20260505221824 | 22 | 317 | 20.9 | 32.2 | 0.00 | 0.00 | 0.00 | 71 | 1007.6 |
| 20260505221621 | 22 | 319 | 19.3 | 27.4 | 0.00 | 0.00 | 0.00 | 71 | 1007.6 |
| 20260505221420 | 22 | 318 | 27.4 | 35.4 | 0.00 | 0.00 | 0.00 | 71 | 1007.6 |
| 20260505221218 | 22 | 312 | 17.7 | 25.7 | 0.00 | 0.00 | 0.00 | 72 | 1007.3 |
| 20260505221016 | 22 | 333 | 14.5 | 22.5 | 0.00 | 0.00 | 0.00 | 71 | 1007.3 |
| 20260505220825 | 22 | 319 | 20.9 | 32.2 | 0.00 | 0.00 | 0.00 | 71 | 1007.1 |
| 20260505220645 | 23 | 346 | 12.9 | 22.5 | 0.00 | 0.00 | 0.00 | 71 | 1007.3 |
| 20260505220423 | 23 | 335 | 9.7 | 20.9 | 0.00 | 0.00 | 0.00 | 71 | 1007.2 |
| 20260505220221 | 23 | 322 | 14.5 | 20.9 | 0.00 | 0.00 | 0.00 | 71 | 1007.1 |
| 20260505220019 | 23 | 323 | 19.3 | 27.4 | 0.00 | 0.00 | 0.00 | 70 | 1007.1 |
| 20260505215820 | 23 | 345 | 9.7 | 17.7 | 0.00 | 0.00 | 0.00 | 70 | 1007.0 |
| 20260505215616 | 23 | 358 | 14.5 | 25.7 | 0.00 | 0.00 | 0.00 | 68 | 1006.9 |
| 20260505215425 | 23 | 342 | 16.1 | 27.4 | 0.00 | 0.00 | 0.00 | 68 | 1006.9 |
| 20260505215244 | 24 | 336 | 12.9 | 25.7 | 0.00 | 0.00 | 0.00 | 67 | 1006.9 |
| 20260505215022 | 24 | 317 | 14.5 | 19.3 | 0.00 | 0.00 | 0.00 | 64 | 1006.8 |
| 20260505214820 | 25 | 356 | 12.9 | 20.9 | 0.00 | 0.00 | 0.00 | 64 | 1006.9 |
| 20260505214619 | 25 | 336 | 14.5 | 24.1 | 0.00 | 0.00 | 0.00 | 64 | 1006.8 |
| 20260505214418 | 25 | 337 | 17.7 | 27.4 | 0.00 | 0.00 | 0.00 | 63 | 1006.8 |
| 20260505214216 | 25 | 320 | 19.3 | 27.4 | 0.00 | 0.00 | 0.00 | 64 | 1006.7 |
| 20260505214025 | 26 | 314 | 19.3 | 25.7 | 0.00 | 0.00 | 0.00 | 64 | 1006.8 |
| 20260505213823 | 25 | 320 | 12.9 | 22.5 | 0.00 | 0.00 | 0.00 | 64 | 1006.7 |
| 20260505213622 | 25 | 320 | 16.1 | 20.9 | 0.00 | 0.00 | 0.00 | 64 | 1006.7 |
| 20260505213440 | 25 | 296 | 19.3 | 27.4 | 0.00 | 0.00 | 0.00 | 65 | 1006.7 |
| 20260505213219 | 25 | 303 | 20.9 | 30.6 | 0.00 | 0.00 | 0.00 | 65 | 1006.8 |
| 20260505213018 | 25 | 304 | 27.4 | 33.8 | 0.00 | 0.00 | 0.00 | 64 | 1006.8 |
| 20260505212816 | 25 | 301 | 19.3 | 24.1 | 0.00 | 0.00 | 0.00 | 66 | 1006.8 |
| 20260505212625 | 25 | 293 | 24.1 | 29.0 | 0.00 | 0.00 | 0.00 | 65 | 1007.1 |
| 20260505212423 | 25 | 295 | 20.9 | 27.4 | 0.00 | 0.00 | 0.00 | 65 | 1006.9 |
| 20260505212223 | 26 | 300 | 19.3 | 25.7 | 0.00 | 0.00 | 0.00 | 65 | 1006.7 |
| 20260505212020 | 26 | 333 | 14.5 | 24.1 | 0.00 | 0.00 | 0.00 | 64 | 1006.4 |
| 20260505211818 | 26 | 314 | 12.9 | 20.9 | 0.00 | 0.00 | 0.00 | 65 | 1006.8 |
| 20260505211617 | 25 | 323 | 16.1 | 29.0 | 0.00 | 0.00 | 0.00 | 66 | 1006.6 |
| 20260505211436 | 25 | 308 | 14.5 | 19.3 | 0.00 | 0.00 | 0.00 | 66 | 1006.6 |
| 20260505211224 | 25 | 311 | 16.1 | 24.1 | 0.00 | 0.00 | 0.00 | 66 | 1006.9 |
| 20260505211024 | 25 | 318 | 19.3 | 27.4 | 0.00 | 0.00 | 0.00 | 65 | 1006.8 |
| 20260505210843 | 26 | 321 | 20.9 | 27.4 | 0.00 | 0.00 | 0.00 | 64 | 1007.0 |
| 20260505210620 | 26 | 335 | 14.5 | 25.7 | 0.00 | 0.00 | 0.00 | 63 | 1007.0 |
| 20260505210419 | 26 | 345 | 11.3 | 17.7 | 0.00 | 0.00 | 0.00 | 64 | 1007.0 |
| 20260505210217 | 26 | 311 | 16.1 | 29.0 | 0.00 | 0.00 | 0.00 | 64 | 1007.0 |
| 20260505210015 | 26 | 331 | 16.1 | 24.1 | 0.00 | 0.00 | 0.00 | 63 | 1007.2 |
| 20260505205824 | 26 | 314 | 22.5 | 33.8 | 0.00 | 0.00 | 0.00 | 63 | 1007.1 |
| 20260505205623 | 26 | 312 | 16.1 | 22.5 | 0.00 | 0.00 | 0.00 | 64 | 1007.1 |
| 20260505205423 | 26 | 293 | 24.1 | 33.8 | 0.00 | 0.00 | 0.00 | 64 | 1007.1 |
| 20260505205220 | 26 | 306 | 19.3 | 27.4 | 0.00 | 0.00 | 0.00 | 63 | 1007.0 |
| 20260505205018 | 26 | 327 | 17.7 | 25.7 | 0.00 | 0.00 | 0.00 | 62 | 1006.8 |
| 20260505204818 | 27 | 293 | 22.5 | 30.6 | 0.00 | 0.00 | 0.00 | 62 | 1006.9 |
| 20260505204628 | 27 | 278 | 22.5 | 29.0 | 0.00 | 0.00 | 0.00 | 61 | 1007.0 |
| 20260505204424 | 26 | 308 | 16.1 | 25.7 | 0.00 | 0.00 | 0.00 | 63 | 1007.1 |
| 20260505204223 | 26 | 293 | 20.9 | 25.7 | 0.00 | 0.00 | 0.00 | 62 | 1007.0 |
| 20260505204021 | 27 | 289 | 29.0 | 37.0 | 0.00 | 0.00 | 0.00 | 61 | 1007.1 |
| 20260505203819 | 27 | 306 | 16.1 | 22.5 | 0.00 | 0.00 | 0.00 | 62 | 1007.0 |
| 20260505203638 | 27 | 327 | 12.9 | 17.7 | 0.00 | 0.00 | 0.00 | 62 | 1007.1 |
| 20260505203416 | 27 | 304 | 20.9 | 30.6 | 0.00 | 0.00 | 0.00 | 62 | 1007.1 |
| 20260505203225 | 27 | 290 | 19.3 | 24.1 | 0.00 | 0.00 | 0.00 | 61 | 1007.0 |
| 20260505203027 | 27 | 286 | 22.5 | 29.0 | 0.00 | 0.00 | 0.00 | 61 | 1006.9 |
| 20260505202822 | 27 | 281 | 19.3 | 22.5 | 0.00 | 0.00 | 0.00 | 61 | 1006.8 |
| 20260505202621 | 27 | 278 | 20.9 | 27.4 | 0.00 | 0.00 | 0.00 | 61 | 1006.8 |
| 20260505202419 | 26 | 308 | 16.1 | 20.9 | 0.00 | 0.00 | 0.00 | 62 | 1006.9 |
| 20260505202218 | 26 | 298 | 22.5 | 33.8 | 0.00 | 0.00 | 0.00 | 61 | 1007.1 |
| 20260505202016 | 26 | 293 | 20.9 | 32.2 | 0.00 | 0.00 | 0.00 | 62 | 1007.3 |
| 20260505201825 | 26 | 307 | 24.1 | 27.4 | 0.00 | 0.00 | 0.00 | 61 | 1007.0 |
| 20260505201644 | 26 | 279 | 17.7 | 25.7 | 0.00 | 0.00 | 0.00 | 61 | 1007.0 |